Year,Month,Day,Hour,Minute,Value (Times are PST for temperature in C)
2018,10,18,00,00,9.40
2018,10,18,00,01,9.40
2018,10,18,00,02,9.50
2018,10,18,00,03,9.50
2018,10,18,00,04,9.60
2018,10,18,00,05,9.60
2018,10,18,00,06,9.70
2018,10,18,00,07,9.70
2018,10,18,00,08,9.80
2018,10,18,00,09,9.80
2018,10,18,00,10,9.80
2018,10,18,00,11,9.90
2018,10,18,00,12,9.90
2018,10,18,00,13,10.00
2018,10,18,00,14,10.00
2018,10,18,00,15,10.10
2018,10,18,00,16,10.10
2018,10,18,00,17,10.20
2018,10,18,00,18,10.20
2018,10,18,00,19,10.20
2018,10,18,00,20,10.30
2018,10,18,00,21,10.30
2018,10,18,00,22,10.30
2018,10,18,00,23,10.20
2018,10,18,00,24,10.20
2018,10,18,00,25,10.20
2018,10,18,00,26,10.10
2018,10,18,00,27,10.10
2018,10,18,00,28,10.00
2018,10,18,00,29,9.90
2018,10,18,00,30,9.80
2018,10,18,00,31,9.70
2018,10,18,00,32,9.60
2018,10,18,00,33,9.50
2018,10,18,00,34,9.40
2018,10,18,00,35,9.30
2018,10,18,00,36,9.30
2018,10,18,00,37,9.20
2018,10,18,00,38,9.20
2018,10,18,00,39,9.20
2018,10,18,00,40,9.20
2018,10,18,00,41,9.20
2018,10,18,00,42,9.20
2018,10,18,00,43,9.20
2018,10,18,00,44,9.20
2018,10,18,00,45,9.30
2018,10,18,00,46,9.30
2018,10,18,00,47,9.30
2018,10,18,00,48,9.30
2018,10,18,00,49,9.30
2018,10,18,00,50,9.20
2018,10,18,00,51,9.20
2018,10,18,00,52,9.10
2018,10,18,00,53,9.00
2018,10,18,00,54,8.90
2018,10,18,00,55,8.90
2018,10,18,00,56,8.80
2018,10,18,00,57,8.70
2018,10,18,00,58,8.70
2018,10,18,00,59,8.60
2018,10,18,01,00,8.60
2018,10,18,01,01,8.50
2018,10,18,01,02,8.50
2018,10,18,01,03,8.40
2018,10,18,01,04,8.40
2018,10,18,01,05,8.40
2018,10,18,01,06,8.30
2018,10,18,01,07,8.30
2018,10,18,01,08,8.30
2018,10,18,01,09,8.30
2018,10,18,01,10,8.30
2018,10,18,01,11,8.30
2018,10,18,01,12,8.30
2018,10,18,01,13,8.30
2018,10,18,01,14,8.30
2018,10,18,01,15,8.20
2018,10,18,01,16,8.20
2018,10,18,01,17,8.10
2018,10,18,01,18,8.00
2018,10,18,01,19,8.00
2018,10,18,01,20,7.90
2018,10,18,01,21,7.90
2018,10,18,01,22,7.90
2018,10,18,01,23,7.90
2018,10,18,01,24,7.90
2018,10,18,01,25,7.90
2018,10,18,01,26,7.90
2018,10,18,01,27,7.90
2018,10,18,01,28,7.90
2018,10,18,01,29,7.90
2018,10,18,01,30,7.80
2018,10,18,01,31,7.80
2018,10,18,01,32,7.80
2018,10,18,01,33,7.80
2018,10,18,01,34,7.80
2018,10,18,01,35,7.80
2018,10,18,01,36,7.80
2018,10,18,01,37,7.80
2018,10,18,01,38,7.70
2018,10,18,01,39,7.70
2018,10,18,01,40,7.70
2018,10,18,01,41,7.70
2018,10,18,01,42,7.60
2018,10,18,01,43,7.60
2018,10,18,01,44,7.50
2018,10,18,01,45,7.50
2018,10,18,01,46,7.40
2018,10,18,01,47,7.40
2018,10,18,01,48,7.30
2018,10,18,01,49,7.30
2018,10,18,01,50,7.30
2018,10,18,01,51,7.30
2018,10,18,01,52,7.20
2018,10,18,01,53,7.20
2018,10,18,01,54,7.20
2018,10,18,01,55,7.20
2018,10,18,01,56,7.30
2018,10,18,01,57,7.30
2018,10,18,01,58,7.30
2018,10,18,01,59,7.30
2018,10,18,02,00,7.30
2018,10,18,02,01,7.30
2018,10,18,02,02,7.30
2018,10,18,02,03,7.30
2018,10,18,02,04,7.30
2018,10,18,02,05,7.30
2018,10,18,02,06,7.30
2018,10,18,02,07,7.20
2018,10,18,02,08,7.20
2018,10,18,02,09,7.10
2018,10,18,02,10,7.10
2018,10,18,02,11,7.10
2018,10,18,02,12,7.10
2018,10,18,02,13,7.10
2018,10,18,02,14,7.10
2018,10,18,02,15,7.20
2018,10,18,02,16,7.20
2018,10,18,02,17,7.20
2018,10,18,02,18,7.20
2018,10,18,02,19,7.30
2018,10,18,02,20,7.30
2018,10,18,02,21,7.30
2018,10,18,02,22,7.40
2018,10,18,02,23,7.40
2018,10,18,02,24,7.40
2018,10,18,02,25,7.50
2018,10,18,02,26,7.60
2018,10,18,02,27,7.70
2018,10,18,02,28,7.70
2018,10,18,02,29,7.80
2018,10,18,02,30,7.80
2018,10,18,02,31,7.80
2018,10,18,02,32,7.80
2018,10,18,02,33,7.80
2018,10,18,02,34,7.70
2018,10,18,02,35,7.70
2018,10,18,02,36,7.60
2018,10,18,02,37,7.60
2018,10,18,02,38,7.50
2018,10,18,02,39,7.40
2018,10,18,02,40,7.40
2018,10,18,02,41,7.40
2018,10,18,02,42,7.40
2018,10,18,02,43,7.50
2018,10,18,02,44,7.50
2018,10,18,02,45,7.60
2018,10,18,02,46,7.70
2018,10,18,02,47,7.70
2018,10,18,02,48,7.80
2018,10,18,02,49,7.80
2018,10,18,02,50,7.80
2018,10,18,02,51,7.80
2018,10,18,02,52,7.70
2018,10,18,02,53,7.70
2018,10,18,02,54,7.70
2018,10,18,02,55,7.70
2018,10,18,02,56,7.70
2018,10,18,02,57,7.70
2018,10,18,02,58,7.60
2018,10,18,02,59,7.60
2018,10,18,03,00,7.50
2018,10,18,03,01,7.50
2018,10,18,03,02,7.40
2018,10,18,03,03,7.40
2018,10,18,03,04,7.40
2018,10,18,03,05,7.30
2018,10,18,03,06,7.30
2018,10,18,03,07,7.30
2018,10,18,03,08,7.30
2018,10,18,03,09,7.30
2018,10,18,03,10,7.30
2018,10,18,03,11,7.30
2018,10,18,03,12,7.30
2018,10,18,03,13,7.30
2018,10,18,03,14,7.30
2018,10,18,03,15,7.30
2018,10,18,03,16,7.40
2018,10,18,03,17,7.40
2018,10,18,03,18,7.40
2018,10,18,03,19,7.40
2018,10,18,03,20,7.40
2018,10,18,03,21,7.40
2018,10,18,03,22,7.40
2018,10,18,03,23,7.40
2018,10,18,03,24,7.40
2018,10,18,03,25,7.40
2018,10,18,03,26,7.40
2018,10,18,03,27,7.40
2018,10,18,03,28,7.40
2018,10,18,03,29,7.40
2018,10,18,03,30,7.40
2018,10,18,03,31,7.40
2018,10,18,03,32,7.40
2018,10,18,03,33,7.40
2018,10,18,03,34,7.40
2018,10,18,03,35,7.40
2018,10,18,03,36,7.40
2018,10,18,03,37,7.40
2018,10,18,03,38,7.30
2018,10,18,03,39,7.30
2018,10,18,03,40,7.30
2018,10,18,03,41,7.30
2018,10,18,03,42,7.30
2018,10,18,03,43,7.30
2018,10,18,03,44,7.30
2018,10,18,03,45,7.30
2018,10,18,03,46,7.30
2018,10,18,03,47,7.30
2018,10,18,03,48,7.30
2018,10,18,03,49,7.30
2018,10,18,03,50,7.30
2018,10,18,03,51,7.30
2018,10,18,03,52,7.30
2018,10,18,03,53,7.30
2018,10,18,03,54,7.20
2018,10,18,03,55,7.20
2018,10,18,03,56,7.20
2018,10,18,03,57,7.20
2018,10,18,03,58,7.10
2018,10,18,03,59,7.10
2018,10,18,04,00,7.10
2018,10,18,04,01,7.10
2018,10,18,04,02,7.00
2018,10,18,05,04,7.90
2018,10,18,05,05,7.90
2018,10,18,05,06,7.80
2018,10,18,05,07,7.80
2018,10,18,05,08,7.70
2018,10,18,05,09,7.70
2018,10,18,05,10,7.70
2018,10,18,05,11,7.70
2018,10,18,05,12,7.70
2018,10,18,05,13,7.70
2018,10,18,05,14,7.70
2018,10,18,05,15,7.70
2018,10,18,05,16,7.70
2018,10,18,05,17,7.70
2018,10,18,05,18,7.70
2018,10,18,05,19,7.70
2018,10,18,05,20,7.70
2018,10,18,05,21,7.70
2018,10,18,05,22,7.70
2018,10,18,05,23,7.70
2018,10,18,05,24,7.70
2018,10,18,05,25,7.70
2018,10,18,05,26,7.70
2018,10,18,05,27,7.70
2018,10,18,05,28,7.70
2018,10,18,05,29,7.70
2018,10,18,05,30,7.70
2018,10,18,05,31,7.60
2018,10,18,05,32,7.60
2018,10,18,05,33,7.60
2018,10,18,05,34,7.70
2018,10,18,05,35,7.70
2018,10,18,05,36,7.70
2018,10,18,05,37,7.70
2018,10,18,05,38,7.80
2018,10,18,05,39,7.80
2018,10,18,05,40,7.90
2018,10,18,05,41,7.90
2018,10,18,05,42,8.00
2018,10,18,05,43,8.00
2018,10,18,05,44,8.00
2018,10,18,05,45,8.00
2018,10,18,05,46,8.10
2018,10,18,05,47,8.10
2018,10,18,05,48,8.10
2018,10,18,05,49,8.00
2018,10,18,05,50,8.00
2018,10,18,05,51,8.10
2018,10,18,05,52,8.10
2018,10,18,05,53,8.10
2018,10,18,05,54,8.20
2018,10,18,05,55,8.20
2018,10,18,05,56,8.20
2018,10,18,05,57,8.30
2018,10,18,05,58,8.30
2018,10,18,05,59,8.30
2018,10,18,06,00,8.30
2018,10,18,06,01,8.30
2018,10,18,06,02,8.30
2018,10,18,06,03,8.30
2018,10,18,06,04,8.30
2018,10,18,06,05,8.30
2018,10,18,06,06,8.30
2018,10,18,06,07,8.30
2018,10,18,06,08,8.30
2018,10,18,06,09,8.30
2018,10,18,06,10,8.20
2018,10,18,06,11,8.20
2018,10,18,06,12,8.20
2018,10,18,06,13,8.10
2018,10,18,06,14,8.10
2018,10,18,06,15,8.10
2018,10,18,06,16,8.00
2018,10,18,06,17,8.00
2018,10,18,06,18,8.00
2018,10,18,06,19,8.00
2018,10,18,06,20,7.90
2018,10,18,06,21,7.90
2018,10,18,06,22,7.90
2018,10,18,06,23,7.90
2018,10,18,06,24,7.90
2018,10,18,06,25,7.90
2018,10,18,06,26,7.90
2018,10,18,06,27,8.00
2018,10,18,06,28,8.00
2018,10,18,06,29,8.10
2018,10,18,06,30,8.10
2018,10,18,06,31,8.10
2018,10,18,06,32,8.10
2018,10,18,06,33,8.10
2018,10,18,06,34,8.10
2018,10,18,06,35,8.10
2018,10,18,06,36,8.20
2018,10,18,06,37,8.30
2018,10,18,06,38,8.40
2018,10,18,06,39,8.50
2018,10,18,06,40,8.60
2018,10,18,06,41,8.70
2018,10,18,06,42,8.80
2018,10,18,06,43,8.80
2018,10,18,06,44,8.90
2018,10,18,06,45,8.80
2018,10,18,06,46,8.80
2018,10,18,06,47,8.70
2018,10,18,06,48,8.60
2018,10,18,06,49,8.60
2018,10,18,06,50,8.50
2018,10,18,06,51,8.50
2018,10,18,06,52,8.40
2018,10,18,06,53,8.40
2018,10,18,06,54,8.40
2018,10,18,06,55,8.30
2018,10,18,06,56,8.30
2018,10,18,06,57,8.30
2018,10,18,06,58,8.20
2018,10,18,06,59,8.20
2018,10,18,07,00,8.20
2018,10,18,07,01,8.20
2018,10,18,07,02,8.20
2018,10,18,07,03,8.20
2018,10,18,07,04,8.20
2018,10,18,07,05,8.20
2018,10,18,07,06,8.30
2018,10,18,07,07,8.40
2018,10,18,07,08,8.50
2018,10,18,07,09,8.50
2018,10,18,07,10,8.50
2018,10,18,07,11,8.50
2018,10,18,07,12,8.40
2018,10,18,07,13,8.40
2018,10,18,07,14,8.40
2018,10,18,07,15,8.40
2018,10,18,07,16,8.40
2018,10,18,07,17,8.40
2018,10,18,07,18,8.40
2018,10,18,07,19,8.40
2018,10,18,07,20,8.40
2018,10,18,07,21,8.40
2018,10,18,07,22,8.40
2018,10,18,07,23,8.40
2018,10,18,07,24,8.40
2018,10,18,07,25,8.30
2018,10,18,07,26,8.30
2018,10,18,07,27,8.30
2018,10,18,07,28,8.20
2018,10,18,07,29,8.20
2018,10,18,07,30,8.20
2018,10,18,07,31,8.20
2018,10,18,07,32,8.10
2018,10,18,07,33,8.10
2018,10,18,07,34,8.10
2018,10,18,07,35,8.10
2018,10,18,07,36,8.10
2018,10,18,07,37,8.10
2018,10,18,07,38,8.10
2018,10,18,07,39,8.10
2018,10,18,07,40,8.10
2018,10,18,07,41,8.20
2018,10,18,07,42,8.20
2018,10,18,07,43,8.20
2018,10,18,07,44,8.30
2018,10,18,07,45,8.30
2018,10,18,07,46,8.30
2018,10,18,07,47,8.40
2018,10,18,07,48,8.40
2018,10,18,07,49,8.40
2018,10,18,07,50,8.40
2018,10,18,07,51,8.40
2018,10,18,07,52,8.30
2018,10,18,07,53,8.30
2018,10,18,07,54,8.30
2018,10,18,07,55,8.20
2018,10,18,07,56,8.20
2018,10,18,07,57,8.20
2018,10,18,07,58,8.20
2018,10,18,07,59,8.10
2018,10,18,08,00,8.10
2018,10,18,08,01,8.20
2018,10,18,08,02,8.20
2018,10,18,08,03,8.20
2018,10,18,08,04,8.20
2018,10,18,08,05,8.30
2018,10,18,08,06,8.30
2018,10,18,08,07,8.30
2018,10,18,08,08,8.30
2018,10,18,08,09,8.30
2018,10,18,08,10,8.40
2018,10,18,08,11,8.30
2018,10,18,08,12,8.30
2018,10,18,08,13,8.30
2018,10,18,08,14,8.30
2018,10,18,08,15,8.30
2018,10,18,08,16,8.30
2018,10,18,08,17,8.30
2018,10,18,08,18,8.30
2018,10,18,08,19,8.30
2018,10,18,08,20,8.30
2018,10,18,08,21,8.30
2018,10,18,08,22,8.30
2018,10,18,08,23,8.30
2018,10,18,08,24,8.30
2018,10,18,08,25,8.30
2018,10,18,08,26,8.30
2018,10,18,08,27,8.30
2018,10,18,08,28,8.40
2018,10,18,08,29,8.40
2018,10,18,08,30,8.40
2018,10,18,08,31,8.50
2018,10,18,08,32,8.50
2018,10,18,08,33,8.50
2018,10,18,08,34,8.60
2018,10,18,08,35,8.60
2018,10,18,08,36,8.60
2018,10,18,08,37,8.60
2018,10,18,08,38,8.60
2018,10,18,08,39,8.70
2018,10,18,08,40,8.70
2018,10,18,08,41,8.70
2018,10,18,08,42,8.70
2018,10,18,08,43,8.80
2018,10,18,08,44,8.80
2018,10,18,08,45,8.80
2018,10,18,08,46,8.90
2018,10,18,08,47,8.90
2018,10,18,08,48,8.90
2018,10,18,08,49,9.00
2018,10,18,08,50,9.00
2018,10,18,08,51,9.00
2018,10,18,08,52,9.10
2018,10,18,08,53,9.10
2018,10,18,08,54,9.20
2018,10,18,08,55,9.30
2018,10,18,08,56,9.30
2018,10,18,08,57,9.40
2018,10,18,08,58,9.50
2018,10,18,08,59,9.60
2018,10,18,09,00,9.70
2018,10,18,09,01,9.70
2018,10,18,09,02,9.80
2018,10,18,09,03,9.80
2018,10,18,09,04,9.90
2018,10,18,09,05,9.90
2018,10,18,09,06,9.90
2018,10,18,09,07,10.00
2018,10,18,09,08,10.00
2018,10,18,09,09,10.10
2018,10,18,09,10,10.20
2018,10,18,09,11,10.20
2018,10,18,09,12,10.30
2018,10,18,09,13,10.30
2018,10,18,09,14,10.30
2018,10,18,09,15,10.30
2018,10,18,09,16,10.40
2018,10,18,09,17,10.40
2018,10,18,09,18,10.40
2018,10,18,09,19,10.40
2018,10,18,09,20,10.40
2018,10,18,09,21,10.50
2018,10,18,09,22,10.50
2018,10,18,09,23,10.50
2018,10,18,09,24,10.60
2018,10,18,09,25,10.60
2018,10,18,09,26,10.60
2018,10,18,09,27,10.60
2018,10,18,09,28,10.70
2018,10,18,09,29,10.70
2018,10,18,09,30,10.70
2018,10,18,09,31,10.70
2018,10,18,09,32,10.70
2018,10,18,09,33,10.70
2018,10,18,09,34,10.80
2018,10,18,09,35,10.80
2018,10,18,09,36,10.80
2018,10,18,09,37,10.80
2018,10,18,09,38,10.80
2018,10,18,09,39,10.80
2018,10,18,09,40,10.80
2018,10,18,09,41,10.80
2018,10,18,09,42,10.80
2018,10,18,09,43,10.90
2018,10,18,09,44,10.90
2018,10,18,09,45,10.90
2018,10,18,09,46,11.00
2018,10,18,09,47,11.00
2018,10,18,09,48,11.10
2018,10,18,09,49,11.10
2018,10,18,09,50,11.20
2018,10,18,09,51,11.20
2018,10,18,09,52,11.20
2018,10,18,09,53,11.30
2018,10,18,09,54,11.30
2018,10,18,09,55,11.40
2018,10,18,09,56,11.40
2018,10,18,09,57,11.40
2018,10,18,09,58,11.50
2018,10,18,09,59,11.50
2018,10,18,10,00,11.50
2018,10,18,10,01,11.60
2018,10,18,10,02,11.60
2018,10,18,10,03,11.70
2018,10,18,10,04,11.70
2018,10,18,10,05,11.80
2018,10,18,10,06,11.90
2018,10,18,10,07,11.90
2018,10,18,10,08,12.00
2018,10,18,10,09,12.00
2018,10,18,10,10,12.00
2018,10,18,10,11,12.00
2018,10,18,10,12,12.00
2018,10,18,10,13,12.00
2018,10,18,10,14,12.00
2018,10,18,10,15,12.00
2018,10,18,10,16,12.00
2018,10,18,10,17,12.00
2018,10,18,10,18,12.00
2018,10,18,10,19,12.10
2018,10,18,10,20,12.10
2018,10,18,10,21,12.10
2018,10,18,10,22,12.10
2018,10,18,10,23,12.20
2018,10,18,10,24,12.20
2018,10,18,10,25,12.30
2018,10,18,10,26,12.30
2018,10,18,10,27,12.30
2018,10,18,10,28,12.30
2018,10,18,10,29,12.40
2018,10,18,10,30,12.40
2018,10,18,10,31,12.50
2018,10,18,10,32,12.50
2018,10,18,10,33,12.60
2018,10,18,10,34,12.60
2018,10,18,10,35,12.60
2018,10,18,10,36,12.70
2018,10,18,10,37,12.70
2018,10,18,10,38,12.70
2018,10,18,10,39,12.70
2018,10,18,10,40,12.60
2018,10,18,10,41,12.60
2018,10,18,10,42,12.60
2018,10,18,10,43,12.70
2018,10,18,10,44,12.70
2018,10,18,10,45,12.70
2018,10,18,10,46,12.70
2018,10,18,10,47,12.80
2018,10,18,10,48,12.80
2018,10,18,10,49,12.80
2018,10,18,10,50,12.90
2018,10,18,10,51,12.90
2018,10,18,10,52,13.00
2018,10,18,10,53,13.00
2018,10,18,10,54,13.10
2018,10,18,10,55,13.10
2018,10,18,10,56,13.10
2018,10,18,10,57,13.10
2018,10,18,10,58,13.10
2018,10,18,10,59,13.10
2018,10,18,11,00,13.10
2018,10,18,11,01,13.10
2018,10,18,11,02,13.10
2018,10,18,11,03,13.10
2018,10,18,11,04,13.10
2018,10,18,11,05,13.10
2018,10,18,11,06,13.10
2018,10,18,11,07,13.10
2018,10,18,11,08,13.10
2018,10,18,11,09,13.10
2018,10,18,11,10,13.10
2018,10,18,11,11,13.20
2018,10,18,11,12,13.20
2018,10,18,11,13,13.20
2018,10,18,11,14,13.20
2018,10,18,11,15,13.20
2018,10,18,11,16,13.10
2018,10,18,11,17,13.10
2018,10,18,11,18,13.10
2018,10,18,11,19,13.10
2018,10,18,11,20,13.10
2018,10,18,11,21,13.10
2018,10,18,11,22,13.10
2018,10,18,11,23,13.10
2018,10,18,11,24,13.20
2018,10,18,11,25,13.20
2018,10,18,11,26,13.20
2018,10,18,11,27,13.30
2018,10,18,11,28,13.30
2018,10,18,11,29,13.30
2018,10,18,11,30,13.30
2018,10,18,11,31,13.30
2018,10,18,11,32,13.40
2018,10,18,11,33,13.40
2018,10,18,11,34,13.40
2018,10,18,11,35,13.40
2018,10,18,11,36,13.40
2018,10,18,11,37,13.50
2018,10,18,11,38,13.50
2018,10,18,11,39,13.60
2018,10,18,11,40,13.70
2018,10,18,11,41,13.70
2018,10,18,11,42,13.80
2018,10,18,11,43,13.80
2018,10,18,11,44,13.90
2018,10,18,11,45,13.90
2018,10,18,11,46,13.90
2018,10,18,11,47,14.00
2018,10,18,11,48,14.00
2018,10,18,11,49,14.00
2018,10,18,11,50,14.00
2018,10,18,11,51,14.00
2018,10,18,11,52,13.90
2018,10,18,11,53,13.90
2018,10,18,11,54,13.90
2018,10,18,11,55,13.90
2018,10,18,11,56,13.90
2018,10,18,11,57,14.00
2018,10,18,11,58,14.00
2018,10,18,11,59,14.10
2018,10,18,12,00,14.20
2018,10,18,12,01,14.20
2018,10,18,12,02,14.30
2018,10,18,12,03,14.30
2018,10,18,12,04,14.40
2018,10,18,12,05,14.40
2018,10,18,12,06,14.50
2018,10,18,12,07,14.60
2018,10,18,12,08,14.60
2018,10,18,12,09,14.70
2018,10,18,12,10,14.80
2018,10,18,12,11,14.90
2018,10,18,12,12,14.90
2018,10,18,12,13,15.00
2018,10,18,12,14,15.00
2018,10,18,12,15,15.20
2018,10,18,12,16,15.30
2018,10,18,12,17,15.30
2018,10,18,12,18,15.30
2018,10,18,12,19,15.40
2018,10,18,12,20,15.40
2018,10,18,12,21,15.40
2018,10,18,12,22,15.50
2018,10,18,12,23,15.50
2018,10,18,12,24,15.50
2018,10,18,12,25,15.60
2018,10,18,12,26,15.60
2018,10,18,12,27,15.70
2018,10,18,12,28,15.70
2018,10,18,12,29,15.70
2018,10,18,12,30,15.70
2018,10,18,12,31,15.70
2018,10,18,12,32,15.80
2018,10,18,12,33,15.80
2018,10,18,12,34,15.80
2018,10,18,12,35,15.80
2018,10,18,12,36,15.80
2018,10,18,12,37,15.70
2018,10,18,12,38,15.60
2018,10,18,12,39,15.60
2018,10,18,12,40,15.60
2018,10,18,12,41,15.60
2018,10,18,12,42,15.60
2018,10,18,12,43,15.60
2018,10,18,12,44,15.60
2018,10,18,12,45,15.60
2018,10,18,12,46,15.60
2018,10,18,12,47,15.60
2018,10,18,12,48,15.60
2018,10,18,12,49,15.60
2018,10,18,12,50,15.60
2018,10,18,12,51,15.70
2018,10,18,12,52,15.70
2018,10,18,12,53,15.70
2018,10,18,12,54,15.80
2018,10,18,12,55,15.80
2018,10,18,12,56,15.80
2018,10,18,12,57,15.90
2018,10,18,12,58,16.00
2018,10,18,12,59,16.00
2018,10,18,13,00,16.10
2018,10,18,13,01,16.20
2018,10,18,13,02,16.20
2018,10,18,13,03,16.20
2018,10,18,13,04,16.20
2018,10,18,13,05,16.30
2018,10,18,13,06,16.30
2018,10,18,13,07,16.30
2018,10,18,13,08,16.40
2018,10,18,13,09,16.40
2018,10,18,13,10,16.50
2018,10,18,13,11,16.60
2018,10,18,13,12,16.70
2018,10,18,13,13,16.80
2018,10,18,13,14,16.80
2018,10,18,13,15,16.90
2018,10,18,13,16,17.00
2018,10,18,13,17,17.00
2018,10,18,13,18,17.10
2018,10,18,13,19,17.10
2018,10,18,13,20,17.10
2018,10,18,13,21,17.10
2018,10,18,13,22,17.10
2018,10,18,13,23,17.10
2018,10,18,13,24,17.10
2018,10,18,13,25,17.10
2018,10,18,13,26,17.10
2018,10,18,13,27,17.10
2018,10,18,13,28,17.10
2018,10,18,13,29,17.20
2018,10,18,13,30,17.20
2018,10,18,13,31,17.20
2018,10,18,13,32,17.30
2018,10,18,13,33,17.30
2018,10,18,13,34,17.30
2018,10,18,13,35,17.30
2018,10,18,13,36,17.30
2018,10,18,13,37,17.40
2018,10,18,13,38,17.40
2018,10,18,13,39,17.50
2018,10,18,13,40,17.50
2018,10,18,13,41,17.60
2018,10,18,13,42,17.60
2018,10,18,13,43,17.70
2018,10,18,13,44,17.80
2018,10,18,13,45,17.80
2018,10,18,13,46,17.90
2018,10,18,13,47,18.00
2018,10,18,13,48,18.10
2018,10,18,13,49,18.10
2018,10,18,13,50,18.20
2018,10,18,13,51,18.30
2018,10,18,13,52,18.40
2018,10,18,13,53,18.50
2018,10,18,13,54,18.50
2018,10,18,13,55,18.50
2018,10,18,13,56,18.40
2018,10,18,13,57,18.40
2018,10,18,13,58,18.30
2018,10,18,13,59,18.30
2018,10,18,14,00,18.20
2018,10,18,14,01,18.10
2018,10,18,14,02,18.00
2018,10,18,14,03,17.90
2018,10,18,14,04,17.90
2018,10,18,14,05,17.80
2018,10,18,14,06,17.80
2018,10,18,14,07,17.80
2018,10,18,14,08,17.70
2018,10,18,14,09,17.70
2018,10,18,14,10,17.70
2018,10,18,14,11,17.70
2018,10,18,14,12,17.70
2018,10,18,14,13,17.70
2018,10,18,14,14,17.70
2018,10,18,14,15,17.70
2018,10,18,14,16,17.70
2018,10,18,14,17,17.70
2018,10,18,14,18,17.70
2018,10,18,14,19,17.80
2018,10,18,14,20,17.80
2018,10,18,14,21,17.80
2018,10,18,14,22,17.80
2018,10,18,14,23,17.80
2018,10,18,14,24,17.80
2018,10,18,14,25,17.80
2018,10,18,14,26,17.80
2018,10,18,14,27,17.80
2018,10,18,14,28,17.80
2018,10,18,14,29,17.80
2018,10,18,14,30,17.70
2018,10,18,14,31,17.70
2018,10,18,14,32,17.70
2018,10,18,14,33,17.60
2018,10,18,14,34,17.60
2018,10,18,14,35,17.60
2018,10,18,14,36,17.60
2018,10,18,14,37,17.60
2018,10,18,14,38,17.60
2018,10,18,14,39,17.60
2018,10,18,14,40,17.60
2018,10,18,14,41,17.60
2018,10,18,14,42,17.60
2018,10,18,14,43,17.60
2018,10,18,14,44,17.70
2018,10,18,14,45,17.70
2018,10,18,14,46,17.70
2018,10,18,14,47,17.60
2018,10,18,14,48,17.50
2018,10,18,14,49,17.50
2018,10,18,14,50,17.40
2018,10,18,14,51,17.40
2018,10,18,14,52,17.40
2018,10,18,14,53,17.40
2018,10,18,14,54,17.40
2018,10,18,14,55,17.40
2018,10,18,14,56,17.40
2018,10,18,14,57,17.30
2018,10,18,14,58,17.20
2018,10,18,14,59,17.20
2018,10,18,15,00,17.20
2018,10,18,15,01,17.20
2018,10,18,15,02,17.20
2018,10,18,15,03,17.30
2018,10,18,15,04,17.30
2018,10,18,15,05,17.40
2018,10,18,15,06,17.40
2018,10,18,15,07,17.40
2018,10,18,15,08,17.40
2018,10,18,15,09,17.40
2018,10,18,15,10,17.40
2018,10,18,15,11,17.40
2018,10,18,15,12,17.40
2018,10,18,15,13,17.30
2018,10,18,15,14,17.30
2018,10,18,15,15,17.30
2018,10,18,15,16,17.40
2018,10,18,15,17,17.40
2018,10,18,15,18,17.40
2018,10,18,15,19,17.40
2018,10,18,15,20,17.30
2018,10,18,15,21,17.30
2018,10,18,15,22,17.40
2018,10,18,15,23,17.40
2018,10,18,15,24,17.40
2018,10,18,15,25,17.40
2018,10,18,15,26,17.50
2018,10,18,15,27,17.50
2018,10,18,15,28,17.60
2018,10,18,15,29,17.60
2018,10,18,15,30,17.60
2018,10,18,15,31,17.60
2018,10,18,15,32,17.60
2018,10,18,15,33,17.60
2018,10,18,15,34,17.60
2018,10,18,15,35,17.60
2018,10,18,15,36,17.60
2018,10,18,15,37,17.60
2018,10,18,15,38,17.50
2018,10,18,15,39,17.40
2018,10,18,15,40,17.40
2018,10,18,15,41,17.40
2018,10,18,15,42,17.40
2018,10,18,15,43,17.40
2018,10,18,15,44,17.40
2018,10,18,15,45,17.40
2018,10,18,15,46,17.40
2018,10,18,15,47,17.30
2018,10,18,15,48,17.30
2018,10,18,15,49,17.30
2018,10,18,15,50,17.30
2018,10,18,15,51,17.30
2018,10,18,15,52,17.30
2018,10,18,15,53,17.20
2018,10,18,15,54,17.20
2018,10,18,15,55,17.20
2018,10,18,15,56,17.10
2018,10,18,15,57,17.10
2018,10,18,15,58,17.10
2018,10,18,15,59,17.10
2018,10,18,16,00,17.10
2018,10,18,16,01,17.00
2018,10,18,16,02,17.00
2018,10,18,16,03,16.90
2018,10,18,16,04,16.90
2018,10,18,16,05,16.90
2018,10,18,16,06,16.90
2018,10,18,16,07,16.90
2018,10,18,16,08,16.80
2018,10,18,16,09,16.80
2018,10,18,17,04,16.30
2018,10,18,17,05,16.30
2018,10,18,17,06,16.30
2018,10,18,17,07,16.30
2018,10,18,17,08,16.30
2018,10,18,17,09,16.30
2018,10,18,17,10,16.30
2018,10,18,17,11,16.20
2018,10,18,17,12,16.20
2018,10,18,17,13,16.20
2018,10,18,17,14,16.10
2018,10,18,17,15,16.10
2018,10,18,17,16,16.10
2018,10,18,17,17,16.10
2018,10,18,17,18,16.00
2018,10,18,17,19,16.00
2018,10,18,17,20,16.00
2018,10,18,17,21,16.00
2018,10,18,17,22,16.00
2018,10,18,17,23,16.00
2018,10,18,17,24,16.00
2018,10,18,17,25,16.00
2018,10,18,17,26,16.00
2018,10,18,17,27,16.00
2018,10,18,17,28,16.00
2018,10,18,17,29,16.00
2018,10,18,17,30,16.00
2018,10,18,17,31,16.00
2018,10,18,17,32,16.00
2018,10,18,17,33,16.00
2018,10,18,17,34,16.00
2018,10,18,17,35,16.00
2018,10,18,17,36,16.00
2018,10,18,17,37,15.90
2018,10,18,17,38,15.90
2018,10,18,17,39,15.90
2018,10,18,17,40,15.90
2018,10,18,17,41,15.90
2018,10,18,17,42,15.90
2018,10,18,17,43,15.80
2018,10,18,17,44,15.80
2018,10,18,17,45,15.80
2018,10,18,17,46,15.80
2018,10,18,17,47,15.80
2018,10,18,17,48,15.70
2018,10,18,17,49,15.70
2018,10,18,17,50,15.60
2018,10,18,17,51,15.50
2018,10,18,17,52,15.50
2018,10,18,17,53,15.40
2018,10,18,17,54,15.40
2018,10,18,17,55,15.40
2018,10,18,17,56,15.30
2018,10,18,17,57,15.20
2018,10,18,17,58,15.20
2018,10,18,17,59,15.10
2018,10,18,18,00,15.10
2018,10,18,18,01,15.00
2018,10,18,18,02,14.90
2018,10,18,18,03,14.80
2018,10,18,18,04,14.80
2018,10,18,18,05,14.70
2018,10,18,18,06,14.60
2018,10,18,18,07,14.60
2018,10,18,18,08,14.50
2018,10,18,18,09,14.40
2018,10,18,18,10,14.40
2018,10,18,18,11,14.30
2018,10,18,18,12,14.30
2018,10,18,18,13,14.20
2018,10,18,18,14,14.20
2018,10,18,18,15,14.10
2018,10,18,18,16,14.00
2018,10,18,18,17,14.00
2018,10,18,18,18,13.90
2018,10,18,18,19,13.90
2018,10,18,18,20,13.80
2018,10,18,18,21,13.80
2018,10,18,18,22,13.80
2018,10,18,18,23,13.70
2018,10,18,18,24,13.70
2018,10,18,18,25,13.60
2018,10,18,18,26,13.60
2018,10,18,18,27,13.50
2018,10,18,18,28,13.50
2018,10,18,18,29,13.50
2018,10,18,18,30,13.40
2018,10,18,18,31,13.40
2018,10,18,18,32,13.30
2018,10,18,18,33,13.30
2018,10,18,18,34,13.30
2018,10,18,18,35,13.20
2018,10,18,18,36,13.20
2018,10,18,18,37,13.20
2018,10,18,18,38,13.10
2018,10,18,18,39,13.10
2018,10,18,18,40,13.10
2018,10,18,18,41,13.00
2018,10,18,18,42,13.00
2018,10,18,18,43,12.90
2018,10,18,18,44,12.90
2018,10,18,18,45,12.90
2018,10,18,18,46,12.80
2018,10,18,18,47,12.80
2018,10,18,18,48,12.80
2018,10,18,18,49,12.80
2018,10,18,18,50,12.70
2018,10,18,18,51,12.70
2018,10,18,18,52,12.70
2018,10,18,18,53,12.70
2018,10,18,18,54,12.60
2018,10,18,18,55,12.60
2018,10,18,18,56,12.60
2018,10,18,18,57,12.50
2018,10,18,18,58,12.50
2018,10,18,18,59,12.40
2018,10,18,19,00,12.40
2018,10,18,19,01,12.40
2018,10,18,19,02,12.40
2018,10,18,19,03,12.30
2018,10,18,19,04,12.30
2018,10,18,19,05,12.30
2018,10,18,19,06,12.30
2018,10,18,19,07,12.30
2018,10,18,19,08,12.20
2018,10,18,19,09,12.20
2018,10,18,19,10,12.20
2018,10,18,19,11,12.20
2018,10,18,19,12,12.20
2018,10,18,19,13,12.10
2018,10,18,19,14,12.10
2018,10,18,19,15,12.10
2018,10,18,19,16,12.00
2018,10,18,19,17,12.00
2018,10,18,19,18,11.90
2018,10,18,19,19,11.90
2018,10,18,19,20,11.80
2018,10,18,19,21,11.80
2018,10,18,19,22,11.80
2018,10,18,19,23,11.70
2018,10,18,19,24,11.70
2018,10,18,19,25,11.70
2018,10,18,19,26,11.70
2018,10,18,19,27,11.70
2018,10,18,19,28,11.70
2018,10,18,19,29,11.70
2018,10,18,19,30,11.70
2018,10,18,19,31,11.70
2018,10,18,19,32,11.60
2018,10,18,19,33,11.60
2018,10,18,19,34,11.60